GW1109 Weather Reports


time (UTC)temp
C
wind
direction
speed
KPH
gust
KPH
rain 1hr
cm
rain 24hr
cm
rain mn
cm
humidity
%
barometer
mb
20260502163043 10 336 3.2 8.0 0.00 0.20 0.20 86 1010.9
20260502161544 10 0 0.0 4.8 0.00 0.20 0.20 88 1011.1
20260502151551 10 82 1.6 4.8 0.00 0.20 0.20 93 1011.3
20260502123049 7 56 3.2 16.1 0.03 0.13 0.13 88 1012.1
20260502121550 7 5 3.2 8.0 0.03 0.13 0.13 87 1011.7
20260502114550 6 339 3.2 9.7 0.10 0.10 0.10 87 1011.6
20260502113047 6 21 1.6 8.0 0.10 0.10 0.10 84 1011.9
20260502111600 5 104 1.6 6.4 0.10 0.10 0.10 80 1012.1
20260502110047 5 29 1.6 9.7 0.03 0.03 0.03 74 1012.0
20260502104547 5 350 1.6 4.8 0.00 0.00 0.00 69 1011.9
20260502103059 6 351 1.6 6.4 0.00 0.00 0.00 68 1011.7
20260502101540 5 88 3.2 9.7 0.00 0.00 0.00 65 1011.5
20260502070048 6 0 0.0 0.0 0.00 0.00 0.00 46 1012.2
20260502064551 6 0 0.0 0.0 0.00 0.00 0.00 47 1012.0
20260502063048 5 0 0.0 0.0 0.00 0.00 0.00 47 1011.5
20260502061545 5 0 0.0 0.0 0.00 0.00 0.00 46 1011.5
20260502060051 5 0 0.0 0.0 0.00 0.00 0.00 49 1011.3
20260502054543 5 0 0.0 0.0 0.00 0.00 0.00 46 1011.2
20260502053048 5 0 0.0 0.0 0.00 0.00 0.00 47 1011.2
20260502051549 5 0 0.0 0.0 0.00 0.00 0.00 47 1011.4
20260502050046 6 0 0.0 0.0 0.00 0.00 0.00 48 1011.1
20260502044542 5 0 0.0 3.2 0.00 0.00 0.00 45 1011.2
20260502043041 5 105 0.0 1.6 0.00 0.00 0.00 46 1011.2
20260502041541 6 0 0.0 1.6 0.00 0.00 0.00 44 1011.0
20260502040049 6 0 0.0 3.2 0.00 0.00 0.00 44 1010.9
20260502034547 6 0 0.0 0.0 0.00 0.00 0.00 42 1010.9
20260502033049 7 0 0.0 3.2 0.00 0.00 0.00 41 1010.9
20260502031545 7 113 0.0 3.2 0.00 0.00 0.00 40 1010.9
20260502030052 7 0 0.0 6.4 0.00 0.00 0.00 40 1010.9
20260502024551 7 0 0.0 0.0 0.00 0.00 0.00 39 1010.8
20260502023049 7 0 0.0 0.0 0.00 0.00 0.00 39 1010.8
20260502021542 8 0 0.0 0.0 0.00 0.00 0.00 38 1010.9
20260502020043 7 0 0.0 0.0 0.00 0.00 0.00 38 1011.0
20260502014550 7 0 0.0 1.6 0.00 0.00 0.00 39 1011.0
20260502013049 7 325 0.0 3.2 0.00 0.00 0.00 40 1010.9
20260502011548 8 0 0.0 1.6 0.00 0.00 0.00 38 1010.9
20260502010052 8 0 0.0 0.0 0.00 0.00 0.00 39 1010.8
20260502004601 9 0 0.0 0.0 0.00 0.00 0.00 34 1010.6
20260502003049 9 0 0.0 0.0 0.00 0.00 0.00 33 1010.3
20260502001541 10 0 0.0 3.2 0.00 0.00 0.00 31 1010.2
20260502000055 10 296 1.6 4.8 0.00 0.00 0.00 30 1009.9
20260501234546 11 280 3.2 11.3 0.00 0.00 0.00 30 1009.8
20260501233044 11 288 4.8 17.7 0.00 0.00 0.00 30 1009.6
20260501231542 12 315 9.7 22.5 0.00 0.00 0.00 28 1009.4
20260501230041 12 311 6.4 20.9 0.00 0.00 0.00 29 1009.1
20260501224546 12 298 8.0 22.5 0.00 0.00 0.00 27 1009.0
20260501223051 12 298 17.7 32.2 0.00 0.00 0.00 27 1008.9
20260501221546 13 256 11.3 30.6 0.00 0.00 0.00 27 1008.8
20260501220051 13 311 14.5 24.1 0.00 0.00 0.00 27 1008.7
20260501214541 13 279 17.7 27.4 0.00 0.00 0.00 27 1008.5
20260501213107 13 311 14.5 29.0 0.00 0.00 0.00 28 1008.2
20260501211547 13 314 17.7 32.2 0.00 0.00 0.00 27 1008.1
20260501210046 13 271 16.1 35.4 0.00 0.00 0.00 27 1007.9
20260501204549 13 284 22.5 38.6 0.00 0.00 0.00 28 1007.8
20260501203041 13 277 19.3 35.4 0.00 0.00 0.00 28 1007.7
20260501201541 13 284 20.9 35.4 0.00 0.00 0.00 29 1007.9
20260501200040 13 264 20.9 38.6 0.00 0.00 0.00 27 1007.7
20260501194554 13 306 19.3 32.2 0.00 0.03 0.00 33 1007.8
20260501193047 13 282 19.3 29.0 0.00 0.03 0.00 35 1007.8
20260501191545 13 303 20.9 38.6 0.00 0.03 0.00 36 1007.7
20260501190044 12 258 19.3 30.6 0.00 0.03 0.00 42 1007.7
20260501184551 12 273 19.3 29.0 0.00 0.05 0.00 39 1007.9
20260501183057 12 323 17.7 37.0 0.00 0.05 0.00 42 1007.7
20260501181553 12 276 19.3 35.4 0.00 0.05 0.00 42 1007.7
20260501180049 12 277 16.1 30.6 0.00 0.05 0.00 45 1007.8
20260501174620 12 268 17.7 30.6 0.00 0.23 0.00 46 1007.7